{"data":{"norad_id":58183,"intl_designator":"2023-167J","name":"STARLINK-30809","alt_names":[],"object_type":"PAYLOAD","status":"ACTIVE","operator":null,"country":"US","launch_date":"2023-10-30","launch_site_code":"AFETR","launch_vehicle":null,"mission":null,"orbit_class":"UNKNOWN","rcs_meters":null,"size_class":null,"mass_kg":null,"dimensions":null,"purposes":["comms"],"wikipedia_slug":null,"has_3d_model":false,"image_url":null,"decayed_at":null,"tle_current":{"epoch":"2026-09-20T21:15:22.818528Z","epoch_age_seconds":107098,"freshness":"FRESH","line1":"1 58183U 23167J   26263.88568077  .00000151  00000+0  15025-4 0  9995","line2":"2 58183  43.0027 121.3876 0001550 264.4976  95.5699 15.27576913160837","mean_motion":15.27576913,"eccentricity":0.000155,"inclination_deg":43.0027,"raan_deg":121.3876,"arg_perigee_deg":264.4976,"mean_anomaly_deg":95.5699,"bstar":1.5025e-5,"rev_number":16083,"period_min":94.266939212376,"perigee_km":481.99485436612,"apogee_km":484.12182492141,"semimajor_km":6861.1953396438,"source":"CELESTRAK","updated_at":"2026-09-21T09:00:33.827475Z"}}}